This is the latest recevied weather packets stored in our database for station/object AI5ON. If no packets are shown the sender has not sent any weather packets the latest 10 day(s).
| Time | Temp. | Humidity | Pressure | Rain* | Wind** | Luminosity | Snow |
|---|---|---|---|---|---|---|---|
| 1787979889 | 26.11° C | 92% | 1016 hPa | 0 mm | - | 0 W/m² | - |
| 1787979588 | 26.11° C | 92% | 1016.1 hPa | 0 mm | - | 0 W/m² | - |
| 1787979284 | 26.11° C | 91% | 1016 hPa | 0 mm | - | 0 W/m² | - |
| 1787978983 | 26.11° C | 90% | 1016.1 hPa | 0 mm | - | 0 W/m² | - |
| 1787978682 | 26.67° C | 90% | 1016.2 hPa | 0 mm | - | 0 W/m² | - |
| 1787978377 | 26.67° C | 89% | 1016 hPa | 0 mm | - | 0 W/m² | - |
| 1787978072 | 26.67° C | 89% | 1016.1 hPa | 0 mm | - | 0 W/m² | - |
| 1787977766 | 26.67° C | 89% | 1016 hPa | 0 mm | - | 0 W/m² | - |
| 1787977463 | 26.67° C | 89% | 1015.9 hPa | 0 mm | - | 0 W/m² | - |
| 1787977162 | 26.67° C | 88% | 1016 hPa | 0 mm | - | 0 W/m² | - |
| 1787976858 | 26.67° C | 87% | 1016 hPa | 0 mm | - | 0 W/m² | - |
| 1787976557 | 27.22° C | 87% | 1016.1 hPa | 0 mm | - | 0 W/m² | - |
| 1787976253 | 27.22° C | 86% | 1016 hPa | 0 mm | - | 0 W/m² | - |
| 1787975952 | 27.78° C | 85% | 1016 hPa | 0 mm | - | 0 W/m² | - |
| 1787975652 | 27.78° C | 83% | 1015.8 hPa | 0 mm | - | 0 W/m² | - |
| 1787975350 | 27.78° C | 83% | 1016 hPa | 0 mm | - | 0 W/m² | - |
| 1787975050 | 27.78° C | 82% | 1015.9 hPa | 0 mm | - | 0 W/m² | - |
| 1787974749 | 28.33° C | 82% | 1015.9 hPa | 0 mm | - | 0 W/m² | - |
| 1787974448 | 28.33° C | 82% | 1015.9 hPa | 0 mm | - | 0 W/m² | - |
| 1787974147 | 28.33° C | 81% | 1015.8 hPa | 0 mm | - | 0 W/m² | - |
| 1787973842 | 28.33° C | 81% | 1015.7 hPa | 0 mm | - | 0 W/m² | - |
| 1787973537 | 27.78° C | 81% | 1015.7 hPa | 0 mm | - | 0 W/m² | - |
| 1787973233 | 27.78° C | 82% | 1015.6 hPa | 0 mm | - | 0 W/m² | - |
| 1787972931 | 27.78° C | 84% | 1015.6 hPa | 0 mm | - | 0 W/m² | - |
| 1787972628 | 27.22° C | 87% | 1015.4 hPa | 0 mm | - | 0 W/m² | - |
* Rain latest hour (hover to see other rain measurements)
** Current wind speed in m/s (hover to see current wind gust speed)